FW8535 Weather Reports


Display with metric or nautical units.
time (UTC)temp
F
wind
direction
speed
MPH
gust
MPH
rain 1hr
in
rain 24hr
in
rain mn
in
humidity
%
barometer
mb
20260502130558 50 227 3.0 4.0 0.00 0.00 0.00 53 1013.5
20260502123559 43 233 6.0 9.0 0.00 0.00 0.00 59 1013.2
20260502123058 42 227 5.0 7.0 0.00 0.00 0.00 60 1013.5
20260502122557 42 232 3.0 4.0 0.00 0.00 0.00 59 1013.7
20260502122056 42 232 1.0 3.0 0.00 0.00 0.00 58 1013.6
20260502121555 43 230 1.0 3.0 0.00 0.00 0.00 57 1013.8
20260502121054 43 231 1.0 2.0 0.00 0.00 0.00 57 1013.9
20260502120553 43 229 0.0 3.0 0.00 0.00 0.00 56 1013.7
20260502120104 43 210 1.0 7.0 0.00 0.00 0.00 56 1013.6
20260502115049 44 244 2.0 10.0 0.00 0.00 0.00 54 1013.7
20260502114556 45 246 7.0 10.0 0.00 0.00 0.00 53 1013.7
20260502114048 45 248 8.0 10.0 0.00 0.00 0.00 53 1013.7
20260502113547 46 254 5.0 14.0 0.00 0.00 0.00 53 1013.9
20260502113048 45 246 5.0 14.0 0.00 0.00 0.00 54 1013.6
20260502112546 45 246 10.0 12.0 0.00 0.00 0.00 54 1013.5
20260502112046 45 253 4.0 14.0 0.00 0.00 0.00 53 1014.0
20260502111550 46 227 10.0 17.0 0.00 0.00 0.00 52 1013.5
20260502111047 47 229 11.0 21.0 0.00 0.00 0.00 51 1013.4
20260502110544 47 224 14.0 21.0 0.00 0.00 0.00 51 1013.4
20260502110043 47 223 14.0 18.0 0.00 0.00 0.00 51 1013.4
20260502105041 48 208 14.0 23.0 0.00 0.00 0.00 50 1013.3
20260502104547 48 213 14.0 19.0 0.00 0.00 0.00 50 1013.4
20260502104038 47 198 12.0 19.0 0.00 0.00 0.00 50 1013.4
20260502103538 47 209 12.0 19.0 0.00 0.00 0.00 50 1013.5
20260502103038 47 217 11.0 17.0 0.00 0.00 0.00 50 1013.6
20260502102538 47 215 12.0 15.0 0.00 0.00 0.00 50 1013.6
20260502102038 47 219 11.0 14.0 0.00 0.00 0.00 50 1013.6
20260502101538 47 216 12.0 15.0 0.00 0.00 0.00 51 1013.7
20260502101038 47 211 11.0 15.0 0.00 0.00 0.00 50 1013.8
20260502100536 47 209 10.0 12.0 0.00 0.00 0.00 50 1013.7
20260502091036 47 213 9.0 15.0 0.00 0.00 0.00 50 1014.2
20260502090536 47 216 9.0 15.0 0.00 0.00 0.00 50 1014.1
20260502071022 47 206 6.0 9.0 0.00 0.00 0.00 46 1015.4
20260502070527 47 203 6.0 9.0 0.00 0.00 0.00 46 1015.4
20260502070024 47 203 5.0 8.0 0.00 0.00 0.00 46 1015.5
20260502065017 47 207 6.0 9.0 0.00 0.00 0.00 46 1015.5
20260502064516 47 209 6.0 9.0 0.00 0.00 0.00 46 1015.6
20260502064016 47 200 6.0 10.0 0.00 0.00 0.00 46 1015.6
20260502063515 47 205 6.0 10.0 0.00 0.00 0.00 46 1015.6
20260502063015 47 198 6.0 10.0 0.00 0.00 0.00 45 1015.7
20260502062515 47 200 6.0 10.0 0.00 0.00 0.00 45 1015.5
20260502062014 47 187 7.0 10.0 0.00 0.00 0.00 45 1015.7
20260502061513 47 201 7.0 10.0 0.00 0.00 0.00 45 1015.7
20260502061013 47 213 8.0 10.0 0.00 0.00 0.00 45 1015.9
20260502060512 47 217 8.0 10.0 0.00 0.00 0.00 45 1015.8
20260502060012 46 216 7.0 9.0 0.00 0.00 0.00 45 1015.8
20260502055018 47 218 8.0 10.0 0.00 0.00 0.00 44 1015.8
20260502054519 47 208 7.0 9.0 0.00 0.00 0.00 43 1016.0
20260502054017 48 204 7.0 10.0 0.00 0.00 0.00 42 1016.0
20260502053516 49 210 8.0 10.0 0.00 0.00 0.00 42 1016.0
20260502053015 48 217 8.0 10.0 0.00 0.00 0.00 42 1016.1
20260502052514 47 211 7.0 10.0 0.00 0.00 0.00 43 1016.2
20260502052015 46 209 6.0 10.0 0.00 0.00 0.00 44 1016.2
20260502051530 46 210 6.0 8.0 0.00 0.00 0.00 44 1016.2
20260502051014 44 202 6.0 8.0 0.00 0.00 0.00 46 1016.2
20260502050513 42 211 5.0 7.0 0.00 0.00 0.00 48 1016.2
20260502050013 42 213 3.0 5.0 0.00 0.00 0.00 46 1016.5
20260502045011 41 213 3.0 5.0 0.00 0.00 0.00 46 1016.5
20260502044510 41 213 3.0 5.0 0.00 0.00 0.00 47 1016.5
20260502044013 40 213 2.0 4.0 0.00 0.00 0.00 47 1016.7
20260502043509 41 213 2.0 4.0 0.00 0.00 0.00 45 1016.6
20260502043010 41 213 2.0 4.0 0.00 0.00 0.00 44 1016.7
20260502042510 42 210 2.0 4.0 0.00 0.00 0.00 44 1016.7
20260502042010 42 210 3.0 4.0 0.00 0.00 0.00 44 1016.9
20260502041508 44 208 2.0 4.0 0.00 0.00 0.00 42 1016.9
20260502041008 44 208 2.0 3.0 0.00 0.00 0.00 42 1017.0
20260502040509 44 208 2.0 4.0 0.00 0.00 0.00 42 1016.9
20260502040009 45 208 2.0 4.0 0.00 0.00 0.00 41 1016.8
20260502035007 45 208 2.0 4.0 0.00 0.00 0.00 40 1016.8
20260502034507 46 208 2.0 5.0 0.00 0.00 0.00 38 1016.9
20260502034007 47 208 3.0 5.0 0.00 0.00 0.00 40 1017.0
20260502033509 47 208 2.0 5.0 0.00 0.00 0.00 39 1016.9
20260502033005 47 204 3.0 5.0 0.00 0.00 0.00 39 1016.9
20260502032506 48 194 3.0 5.0 0.00 0.00 0.00 38 1016.8
20260502032005 48 194 3.0 5.0 0.00 0.00 0.00 37 1016.8
20260502031505 50 185 3.0 5.0 0.00 0.00 0.00 37 1016.8
20260502031005 50 224 4.0 5.0 0.00 0.00 0.00 35 1016.8
20260502030505 51 224 3.0 5.0 0.00 0.00 0.00 35 1016.8
20260502030005 51 224 3.0 5.0 0.00 0.00 0.00 35 1016.8
20260502025009 51 219 3.0 5.0 0.00 0.00 0.00 35 1016.7
20260502024509 51 218 3.0 4.0 0.00 0.00 0.00 34 1016.7
20260502024010 51 218 3.0 4.0 0.00 0.00 0.00 34 1016.8
20260502023512 52 218 3.0 4.0 0.00 0.00 0.00 34 1016.7
20260502023009 52 215 3.0 4.0 0.00 0.00 0.00 33 1016.6
20260502022510 52 215 3.0 4.0 0.00 0.00 0.00 32 1016.7
20260502022008 52 215 3.0 4.0 0.00 0.00 0.00 33 1016.7
20260502021508 53 215 2.0 4.0 0.00 0.00 0.00 32 1016.6
20260502021008 53 217 2.0 4.0 0.00 0.00 0.00 31 1016.6
20260502020507 55 218 2.0 5.0 0.00 0.00 0.00 30 1016.7
20260502020008 56 218 3.0 5.0 0.00 0.00 0.00 29 1016.7
20260502015012 58 218 4.0 5.0 0.00 0.00 0.00 28 1016.8
20260502014510 60 211 4.0 7.0 0.00 0.00 0.00 27 1016.8
20260502014009 61 209 4.0 7.0 0.00 0.00 0.00 26 1016.8
20260502013505 62 207 4.0 8.0 0.00 0.00 0.00 25 1016.7
20260502013004 63 205 5.0 8.0 0.00 0.00 0.00 24 1016.7
20260502012504 64 212 6.0 10.0 0.00 0.00 0.00 24 1016.8
20260502012006 64 211 6.0 10.0 0.00 0.00 0.00 24 1016.9
20260502011504 64 211 7.0 10.0 0.00 0.00 0.00 23 1016.9
20260502011003 65 207 7.0 15.0 0.00 0.00 0.00 23 1017.1
20260502010503 65 212 10.0 15.0 0.00 0.00 0.00 23 1017.0
20260502010004 65 227 8.0 10.0 0.00 0.00 0.00 22 1016.9
20260502005059 65 209 7.0 12.0 0.00 0.00 0.00 22 1017.0
20260502004559 66 221 8.0 12.0 0.00 0.00 0.00 22 1017.0
20260502004059 66 229 9.0 14.0 0.00 0.00 0.00 22 1017.2
20260502003601 66 224 6.0 11.0 0.00 0.00 0.00 22 1017.2
20260502003057 66 238 8.0 11.0 0.00 0.00 0.00 21 1017.3
20260502002557 66 211 8.0 11.0 0.00 0.00 0.00 21 1017.2
20260502002056 66 200 6.0 9.0 0.00 0.00 0.00 22 1017.4
20260502001558 66 223 5.0 14.0 0.00 0.00 0.00 22 1017.4
20260502001055 67 235 8.0 14.0 0.00 0.00 0.00 21 1017.5
20260502000556 67 209 6.0 12.0 0.00 0.00 0.00 21 1017.3
20260502000055 67 215 8.0 14.0 0.00 0.00 0.00 22 1017.4
20260501235655 66 232 8.0 10.0 0.00 0.00 0.00 22 1017.2
20260501235059 67 225 8.0 10.0 0.00 0.00 0.00 22 1017.3
20260501234600 67 209 4.0 10.0 0.00 0.00 0.00 22 1017.4
20260501234101 66 225 6.0 11.0 0.00 0.00 0.00 21 1017.5
20260501233602 66 225 4.0 15.0 0.00 0.00 0.00 21 1017.6
20260501233103 67 219 8.0 15.0 0.00 0.00 0.00 21 1017.6
20260501232558 67 185 7.0 15.0 0.00 0.00 0.00 21 1017.4
20260501232101 67 246 6.0 11.0 0.00 0.00 0.00 21 1017.6
20260501231605 67 196 3.0 8.0 0.00 0.00 0.00 22 1017.7
20260501231056 67 142 4.0 11.0 0.00 0.00 0.00 22 1017.4
20260501230557 67 217 8.0 11.0 0.00 0.00 0.00 22 1017.6
20260501230058 67 198 5.0 13.0 0.00 0.00 0.00 22 1017.6
20260501225656 67 242 4.0 12.0 0.00 0.00 0.00 22 1017.7
20260501225057 67 256 3.0 12.0 0.00 0.00 0.00 22 1017.7
20260501224555 67 243 6.0 12.0 0.00 0.00 0.00 22 1017.7
20260501224055 67 231 4.0 12.0 0.00 0.00 0.00 22 1017.7
20260501223554 67 238 5.0 11.0 0.00 0.00 0.00 22 1017.9
20260501223056 67 182 5.0 11.0 0.00 0.00 0.00 22 1017.8
20260501222554 66 200 3.0 11.0 0.00 0.00 0.00 23 1017.9
20260501222057 66 213 5.0 12.0 0.00 0.00 0.00 22 1017.9
20260501221553 66 238 8.0 14.0 0.00 0.00 0.00 23 1018.1
20260501221052 67 240 8.0 14.0 0.00 0.00 0.00 22 1018.2
20260501220552 67 229 4.0 10.0 0.00 0.00 0.00 22 1018.3
20260501220052 67 124 5.0 11.0 0.00 0.00 0.00 22 1018.2
20260501215654 67 230 2.0 11.0 0.00 0.00 0.00 23 1018.3
20260501215047 66 242 2.0 8.0 0.00 0.00 0.00 22 1018.4
20260501214559 66 255 4.0 10.0 0.00 0.00 0.00 22 1018.4
20260501214045 66 223 4.0 8.0 0.00 0.00 0.00 22 1018.6
20260501213544 66 221 4.0 7.0 0.00 0.00 0.00 22 1018.5
20260501213049 66 132 3.0 8.0 0.00 0.00 0.00 22 1018.6
20260501212543 66 53 3.0 13.0 0.00 0.00 0.00 22 1018.7
20260501212043 66 155 4.0 15.0 0.00 0.00 0.00 23 1018.7
20260501211543 66 201 9.0 15.0 0.00 0.00 0.00 23 1018.8
20260501211042 66 221 7.0 11.0 0.00 0.00 0.00 23 1019.0
20260501210542 66 270 3.0 7.0 0.00 0.00 0.00 23 1019.0
20260501210041 66 238 3.0 12.0 0.00 0.00 0.00 23 1018.8
20260501205641 65 198 2.0 11.0 0.00 0.00 0.00 22 1018.9
20260501205040 65 198 5.0 11.0 0.00 0.00 0.00 23 1019.0
20260501204540 66 219 7.0 11.0 0.00 0.00 0.00 23 1019.1
20260501204040 65 242 6.0 10.0 0.00 0.00 0.00 24 1019.1
20260501203537 65 123 5.0 8.0 0.00 0.00 0.00 23 1019.1
20260501203037 64 58 2.0 9.0 0.00 0.00 0.00 25 1019.2
20260501202536 64 124 3.0 13.0 0.00 0.00 0.00 24 1019.3
20260501202036 64 136 7.0 13.0 0.00 0.00 0.00 24 1019.2
20260501201542 64 159 4.0 16.0 0.00 0.00 0.00 25 1019.3
20260501201038 64 137 8.0 15.0 0.00 0.00 0.00 25 1019.4
20260501200536 64 92 7.0 15.0 0.00 0.00 0.00 25 1019.2
20260501200035 64 150 7.0 12.0 0.00 0.00 0.00 25 1019.3
20260501195039 64 112 2.0 9.0 0.00 0.00 0.00 26 1019.4
20260501194548 63 186 5.0 9.0 0.00 0.00 0.00 26 1019.4
20260501194038 63 226 3.0 11.0 0.00 0.00 0.00 26 1019.4
20260501193542 63 222 8.0 11.0 0.00 0.00 0.00 26 1019.5
20260501193037 63 251 5.0 13.0 0.00 0.00 0.00 27 1019.5
20260501192540 63 222 6.0 13.0 0.00 0.00 0.00 26 1019.6
20260501192037 64 194 7.0 13.0 0.00 0.00 0.00 25 1019.6
20260501191536 64 181 7.0 13.0 0.00 0.00 0.00 26 1019.6
20260501191035 63 141 3.0 10.0 0.00 0.00 0.00 26 1019.7
20260501190534 63 225 4.0 10.0 0.00 0.00 0.00 28 1019.7
20260501190036 63 199 4.0 10.0 0.00 0.00 0.00 26 1019.6
20260501185635 63 117 4.0 10.0 0.00 0.00 0.00 27 1019.9
20260501185037 63 220 4.0 12.0 0.00 0.00 0.00 27 1019.7
20260501184537 62 251 4.0 12.0 0.00 0.00 0.00 26 1019.9
20260501184037 63 195 6.0 15.0 0.00 0.00 0.00 26 1020.0
20260501183536 62 174 4.0 16.0 0.00 0.00 0.00 27 1019.9
20260501183036 62 124 2.0 11.0 0.00 0.00 0.00 27 1020.0
20260501182535 62 150 4.0 11.0 0.00 0.00 0.00 27 1020.1
20260501182035 62 25 5.0 12.0 0.00 0.00 0.00 27 1020.0
20260501181536 62 89 7.0 15.0 0.00 0.00 0.00 27 1019.9
20260501181034 62 109 6.0 14.0 0.00 0.00 0.00 28 1020.0
20260501180534 62 152 10.0 14.0 0.00 0.00 0.00 27 1020.0
20260501180038 62 180 3.0 8.0 0.00 0.00 0.00 29 1019.9
20260501175024 61 124 5.0 12.0 0.00 0.00 0.00 27 1020.4
20260501174524 61 103 7.0 14.0 0.00 0.00 0.00 28 1020.3
20260501174023 62 134 9.0 14.0 0.00 0.00 0.00 28 1020.2
20260501173524 61 207 6.0 14.0 0.00 0.00 0.00 30 1020.4
20260501173026 61 223 6.0 14.0 0.00 0.00 0.00 29 1020.4
20260501172521 60 238 3.0 7.0 0.00 0.00 0.00 30 1020.5
20260501172021 60 135 1.0 10.0 0.00 0.00 0.00 31 1020.6
20260501171527 60 139 7.0 10.0 0.00 0.00 0.00 31 1020.6
20260501171019 59 215 3.0 9.0 0.00 0.00 0.00 31 1020.6
20260501170519 60 180 6.0 10.0 0.00 0.00 0.00 31 1020.7
20260501170020 59 186 6.0 10.0 0.00 0.00 0.00 31 1020.7
20260501165618 59 217 5.0 10.0 0.00 0.00 0.00 31 1020.6
20260501165019 59 132 5.0 10.0 0.00 0.00 0.00 31 1020.7
20260501164530 59 129 6.0 9.0 0.00 0.00 0.00 30 1020.8
20260501164017 58 214 5.0 9.0 0.00 0.00 0.00 32 1020.6
20260501163518 57 226 5.0 10.0 0.00 0.00 0.00 32 1020.8
20260501163020 57 188 5.0 8.0 0.00 0.00 0.00 33 1020.8
20260501162518 57 194 3.0 8.0 0.00 0.00 0.00 33 1020.7
20260501162013 57 191 3.0 8.0 0.00 0.00 0.00 33 1020.7
20260501161514 56 200 4.0 8.0 0.00 0.00 0.00 34 1020.7
20260501161012 56 205 5.0 9.0 0.00 0.00 0.00 35 1020.7
20260501160511 55 164 3.0 9.0 0.00 0.00 0.00 34 1020.8
20260501160016 56 194 5.0 9.0 0.00 0.00 0.00 34 1020.8
20260501155510 54 189 2.0 8.0 0.00 0.00 0.00 35 1020.8
20260501155015 54 189 2.0 8.0 0.00 0.00 0.00 35 1020.9
20260501154513 54 219 4.0 8.0 0.00 0.00 0.00 34 1020.8
20260501154013 54 177 4.0 9.0 0.00 0.00 0.00 34 1020.7
20260501153510 53 192 6.0 9.0 0.00 0.00 0.00 34 1020.7
20260501153009 53 196 5.0 7.0 0.00 0.00 0.00 34 1020.8
20260501152508 52 146 3.0 8.0 0.00 0.00 0.00 36 1020.6
20260501152007 51 198 3.0 8.0 0.00 0.00 0.00 38 1020.7
20260501151506 50 190 3.0 8.0 0.00 0.00 0.00 40 1020.8
20260501151004 50 213 4.0 8.0 0.00 0.00 0.00 41 1020.7
20260501150506 49 201 3.0 8.0 0.00 0.00 0.00 42 1020.7
20260501150008 48 184 5.0 8.0 0.00 0.00 0.00 43 1020.7
20260501145601 47 200 5.0 8.0 0.00 0.00 0.00 43 1020.7